This is the latest recevied weather packets stored in our database for station/object EA1GHG-11. If no packets are shown the sender has not sent any weather packets the latest 10 day(s).
| Time | Temp. | Humidity | Pressure | Rain* | Wind** | Luminosity | Snow |
|---|---|---|---|---|---|---|---|
| 1788329971 | 11.67° C | 100% | 1026.4 hPa | - | - | - | - |
| 1788328471 | 11.67° C | 100% | 1026 hPa | - | - | - | - |
| 1788326971 | 12.22° C | 100% | 1025.9 hPa | - | - | - | - |
| 1788325471 | 12.22° C | 100% | 1026 hPa | - | - | - | - |
| 1788323970 | 12.22° C | 100% | 1025.7 hPa | - | - | - | - |
| 1788322471 | 12.78° C | 100% | 1025.7 hPa | - | - | - | - |
| 1788320970 | 12.78° C | 100% | 1025.8 hPa | - | - | - | - |
| 1788319470 | 13.33° C | 100% | 1025.7 hPa | - | - | - | - |
| 1788317970 | 13.33° C | 100% | 1025.6 hPa | - | - | - | - |
| 1788316470 | 13.33° C | 100% | 1025.8 hPa | - | - | - | - |
| 1788315870 | 13.89° C | 100% | 1025.7 hPa | - | - | - | - |
| 1788314370 | 13.89° C | 100% | 1025.8 hPa | - | - | - | - |
| 1788312870 | 14.44° C | 100% | 1025.9 hPa | - | - | - | - |
| 1788311370 | 14.44° C | 100% | 1026 hPa | - | - | - | - |
| 1788309870 | 15.56° C | 100% | 1026 hPa | - | - | - | - |
| 1788308370 | 16.11° C | 100% | 1025.9 hPa | - | - | - | - |
| 1788306870 | 16.67° C | 100% | 1025.8 hPa | - | - | - | - |
| 1788305370 | 16.67° C | 100% | 1025.8 hPa | - | - | - | - |
| 1788303870 | 17.22° C | 100% | 1025.7 hPa | - | - | - | - |
| 1788302370 | 17.22° C | 100% | 1025.8 hPa | - | - | - | - |
| 1788300869 | 18.33° C | 100% | 1025.7 hPa | - | - | - | - |
| 1788299370 | 18.89° C | 100% | 1025.7 hPa | - | - | - | - |
| 1788297868 | 20° C | 100% | 1025.4 hPa | - | - | - | - |
| 1788296368 | 20° C | 100% | 1025.1 hPa | - | - | - | - |
| 1788294868 | 20° C | 100% | 1024.8 hPa | - | - | - | - |
* Rain since midnight (hover to see other rain measurements)
** Current wind speed in m/s (hover to see current wind gust speed)